EW9372 Weather Reports


Display with metric or nautical units.
time (UTC)temp
F
wind
direction
speed
MPH
gust
MPH
rain 1hr
in
rain 24hr
in
rain mn
in
humidity
%
barometer
mb
20260510091504 63 202 2.0 5.0 0.00 0.00 0.00 72 1010.2
20260510091005 63 232 2.0 5.0 0.00 0.00 0.00 72 1010.2
20260510090501 63 190 2.0 5.0 0.00 0.00 0.00 71 1010.1
20260510090001 63 228 2.0 5.0 0.00 0.00 0.00 71 1010.1
20260510085501 64 230 2.0 4.0 0.00 0.00 0.00 71 1010.0
20260510085002 64 207 3.0 4.0 0.00 0.00 0.00 70 1010.0
20260510084502 64 204 3.0 3.0 0.00 0.00 0.00 70 1009.9
20260510083343 64 193 3.0 5.0 0.00 0.00 0.00 69 1009.9
20260510082836 65 211 2.0 4.0 0.00 0.00 0.00 69 1010.0
20260510082340 65 194 2.0 4.0 0.00 0.00 0.00 68 1010.0
20260510081837 65 207 2.0 4.0 0.00 0.00 0.00 68 1010.0
20260510081335 65 197 2.0 4.0 0.00 0.00 0.00 68 1010.0
20260510080824 65 192 2.0 4.0 0.00 0.00 0.00 68 1010.1
20260510080819 65 182 2.0 2.0 0.00 0.00 0.00 68 1010.1
20260510075446 66 200 3.0 5.0 0.00 0.00 0.00 68 1010.2
20260510074443 66 182 3.0 5.0 0.00 0.00 0.00 68 1010.3
20260510073944 66 213 2.0 5.0 0.00 0.00 0.00 68 1010.4
20260510073441 66 204 2.0 2.0 0.00 0.00 0.00 68 1010.4
20260510073059 66 167 3.0 5.0 0.00 0.00 0.00 69 1010.5
20260510071555 66 217 3.0 5.0 0.00 0.00 0.00 69 1010.4
20260510071051 66 140 2.0 1.0 0.00 0.00 0.00 69 1010.4
20260510070459 67 185 3.0 2.0 0.00 0.00 0.00 68 1010.3
20260510064146 67 155 3.0 9.0 0.00 0.00 0.00 69 1010.3
20260510063645 68 178 3.0 6.0 0.00 0.00 0.00 68 1010.3
20260510063147 68 204 4.0 4.0 0.00 0.00 0.00 68 1010.2
20260510062018 69 196 2.0 7.0 0.00 0.00 0.00 68 1010.4
20260510061524 69 213 3.0 2.0 0.00 0.00 0.00 68 1010.3
20260510061518 69 187 2.0 4.0 0.00 0.00 0.00 68 1010.3
20260510055629 70 164 2.0 5.0 0.00 0.00 0.00 68 1010.3
20260510055132 70 207 2.0 3.0 0.00 0.00 0.00 68 1010.4
20260510053849 71 177 3.0 2.0 0.00 0.00 0.00 67 1010.4
20260510052716 71 165 2.0 4.0 0.00 0.00 0.00 66 1010.5
20260510052712 71 183 2.0 4.0 0.00 0.00 0.00 67 1010.4
20260510051714 71 188 2.0 1.0 0.00 0.00 0.00 66 1010.4
20260510050346 73 205 3.0 6.0 0.00 0.00 0.00 62 1010.1
20260510050250 72 221 2.0 3.0 0.00 0.00 0.00 63 1010.4
20260510045123 74 181 3.0 3.0 0.00 0.00 0.00 62 1010.1
20260510043112 75 177 2.0 6.0 0.00 0.00 0.00 62 1010.0
20260510043107 74 194 2.0 6.0 0.00 0.00 0.00 62 1010.1
20260510042110 75 194 2.0 5.0 0.00 0.00 0.00 61 1010.0
20260510041615 75 222 2.0 1.0 0.00 0.00 0.00 60 1010.0
20260510040303 76 171 2.0 9.0 0.00 0.00 0.00 59 1009.7
20260510035806 76 254 2.0 9.0 0.00 0.00 0.00 59 1009.9
20260510035306 77 198 2.0 5.0 0.00 0.00 0.00 58 1009.9
20260510034805 78 182 2.0 4.0 0.00 0.00 0.00 58 1009.8
20260510034800 77 167 2.0 5.0 0.00 0.00 0.00 58 1009.8
20260510033756 79 165 2.0 3.0 0.00 0.00 0.00 57 1009.7
20260510032613 80 215 2.0 5.0 0.00 0.00 0.00 56 1009.7
20260510032559 80 229 3.0 5.0 0.00 0.00 0.00 56 1009.7
20260510031600 80 232 4.0 3.0 0.00 0.00 0.00 55 1009.6
20260510030134 81 225 4.0 8.0 0.00 0.00 0.00 53 1009.5
20260510025635 82 236 4.0 9.0 0.00 0.00 0.00 51 1009.5
20260510025135 82 219 5.0 10.0 0.00 0.00 0.00 50 1009.4
20260510024639 84 250 3.0 7.0 0.00 0.00 0.00 49 1009.4
20260510024634 83 242 4.0 10.0 0.00 0.00 0.00 50 1009.5
20260510023632 85 252 3.0 6.0 0.00 0.00 0.00 48 1009.3
20260510023134 85 235 3.0 3.0 0.00 0.00 0.00 46 1009.4
20260510021625 87 239 2.0 4.0 0.00 0.00 0.00 35 1009.3
20260510021120 87 221 1.0 4.0 0.00 0.00 0.00 36 1009.4
20260510020620 87 210 0.0 0.0 0.00 0.00 0.00 40 1009.4
20260510020118 87 177 0.0 0.0 0.00 0.00 0.00 42 1009.4
20260510015611 87 173 0.0 0.0 0.00 0.00 0.00 42 1009.5
20260510015111 87 173 0.0 0.0 0.00 0.00 0.00 40 1009.5
20260510015105 87 179 0.0 0.0 0.00 0.00 0.00 41 1009.5
20260510014103 87 166 0.0 0.0 0.00 0.00 0.00 43 1009.5
20260510013548 87 166 0.0 0.0 0.00 0.00 0.00 43 1009.5
20260510013045 87 167 0.0 0.0 0.00 0.00 0.00 43 1009.6
20260510012545 87 167 0.0 0.0 0.00 0.00 0.00 43 1009.6
20260510012030 87 167 0.0 0.0 0.00 0.00 0.00 41 1009.6
20260510012024 87 166 0.0 0.0 0.00 0.00 0.00 42 1009.6
20260510011020 87 167 0.0 0.0 0.00 0.00 0.00 42 1009.6
20260510010520 87 169 0.0 1.0 0.00 0.00 0.00 43 1009.6
20260510005953 88 169 0.0 2.0 0.00 0.00 0.00 42 1009.6
20260510005947 88 173 0.0 2.0 0.00 0.00 0.00 43 1009.6
20260510004945 88 156 0.0 2.0 0.00 0.00 0.00 43 1009.6
20260510004938 89 153 0.0 2.0 0.00 0.00 0.00 43 1009.7
20260510004644 88 159 0.0 2.0 0.00 0.00 0.00 43 1009.7
20260510003929 88 142 0.0 2.0 0.00 0.00 0.00 43 1009.7
20260510002910 89 207 0.0 2.0 0.00 0.00 0.00 43 1009.7
20260510002407 89 167 0.0 0.0 0.00 0.00 0.00 42 1009.8
20260510001900 89 177 0.0 0.0 0.00 0.00 0.00 39 1009.9
20260510001406 89 185 0.0 0.0 0.00 0.00 0.00 37 1010.0
20260509235830 90 157 0.0 0.0 0.00 0.00 0.00 38 1010.1
20260509235326 90 163 0.0 0.0 0.00 0.00 0.00 38 1010.1
20260509234242 90 168 0.0 2.0 0.00 0.00 0.00 38 1010.2
20260509233240 89 239 1.0 4.0 0.00 0.00 0.00 38 1010.2
20260509232741 90 40 1.0 4.0 0.00 0.00 0.00 38 1010.3
20260509232221 90 237 1.0 5.0 0.00 0.00 0.00 38 1010.3
20260509231718 90 253 1.0 6.0 0.00 0.00 0.00 39 1010.4
20260509231219 89 38 0.0 6.0 0.00 0.00 0.00 39 1010.5
20260509230719 89 0 1.0 3.0 0.00 0.00 0.00 40 1010.5
20260509230210 89 40 1.0 1.0 0.00 0.00 0.00 40 1010.5
20260509224720 89 229 1.0 5.0 0.00 0.00 0.00 41 1010.8
20260509224221 89 234 1.0 5.0 0.00 0.00 0.00 42 1010.8
20260509223723 89 257 1.0 0.0 0.00 0.00 0.00 42 1010.8
20260509222456 89 257 1.0 3.0 0.00 0.00 0.00 42 1011.2
20260509222452 89 205 1.0 7.0 0.00 0.00 0.00 41 1011.1
20260509221453 89 275 1.0 3.0 0.00 0.00 0.00 42 1011.2
20260509220953 88 240 1.0 0.0 0.00 0.00 0.00 42 1011.2
20260509215830 88 219 2.0 8.0 0.00 0.00 0.00 41 1011.0
20260509215329 88 244 2.0 8.0 0.00 0.00 0.00 42 1011.2
20260509214827 89 61 1.0 5.0 0.00 0.00 0.00 41 1011.3
20260509214324 88 251 1.0 9.0 0.00 0.00 0.00 42 1011.3
20260509213820 89 196 2.0 9.0 0.00 0.00 0.00 42 1011.5
20260509213320 88 219 1.0 5.0 0.00 0.00 0.00 43 1011.6
20260509213315 88 212 1.0 6.0 0.00 0.00 0.00 42 1011.5
20260509212815 88 250 1.0 6.0 0.00 0.00 0.00 42 1011.6
20260509212547 88 163 1.0 5.0 0.00 0.00 0.00 42 1011.6
20260509211254 88 168 2.0 7.0 0.00 0.00 0.00 43 1011.7
20260509210753 87 204 1.0 7.0 0.00 0.00 0.00 45 1011.7
20260509210254 86 261 1.0 5.0 0.00 0.00 0.00 47 1011.6
20260509205757 86 209 2.0 5.0 0.00 0.00 0.00 45 1011.8
20260509205241 87 212 2.0 5.0 0.00 0.00 0.00 46 1011.8
20260509204736 86 246 3.0 7.0 0.00 0.00 0.00 45 1011.7
20260509204238 86 244 2.0 7.0 0.00 0.00 0.00 45 1011.7
20260509203729 86 234 1.0 3.0 0.00 0.00 0.00 45 1011.9
20260509202314 85 206 2.0 6.0 0.00 0.00 0.00 46 1011.9
20260509201816 85 177 2.0 9.0 0.00 0.00 0.00 47 1011.9
20260509201302 85 227 2.0 9.0 0.00 0.00 0.00 47 1011.9
20260509200806 84 205 1.0 5.0 0.00 0.00 0.00 48 1012.0
20260509200254 84 169 1.0 5.0 0.00 0.00 0.00 48 1012.1
20260509195754 85 166 1.0 5.0 0.00 0.00 0.00 46 1012.1
20260509195255 84 80 1.0 5.0 0.00 0.00 0.00 47 1012.2
20260509194754 85 196 1.0 5.0 0.00 0.00 0.00 47 1012.2
20260509194302 83 53 1.0 5.0 0.00 0.00 0.00 51 1012.2
20260509193749 82 28 2.0 6.0 0.00 0.00 0.00 50 1012.2
20260509193236 82 240 2.0 6.0 0.00 0.00 0.00 50 1012.3
20260509192733 82 10 1.0 2.0 0.00 0.00 0.00 50 1012.3
20260509191448 82 244 2.0 6.0 0.00 0.00 0.00 50 1012.6
20260509190952 82 242 2.0 5.0 0.00 0.00 0.00 50 1012.7
20260509190948 82 330 2.0 6.0 0.00 0.00 0.00 50 1012.7
20260509185949 82 223 1.0 3.0 0.00 0.00 0.00 50 1012.8
20260509184545 81 61 2.0 1.0 0.00 0.00 0.00 51 1013.0
20260509182954 81 125 1.0 5.0 0.00 0.00 0.00 51 1013.0
20260509182445 80 198 2.0 0.0 0.00 0.00 0.00 51 1013.1
20260509181142 80 209 1.0 6.0 0.00 0.00 0.00 51 1013.3
20260509180644 79 244 1.0 6.0 0.00 0.00 0.00 52 1013.3
20260509180144 79 238 1.0 5.0 0.00 0.00 0.00 52 1013.2
20260509175640 78 223 1.0 3.0 0.00 0.00 0.00 53 1013.3
20260509175127 78 184 1.0 3.0 0.00 0.00 0.00 53 1013.1
20260509174621 78 132 1.0 0.0 0.00 0.00 0.00 52 1013.1
20260509173425 76 248 3.0 5.0 0.00 0.00 0.00 55 1013.1
20260509172922 77 227 2.0 6.0 0.00 0.00 0.00 52 1013.1
20260509172423 76 221 1.0 6.0 0.00 0.00 0.00 55 1013.0
20260509171920 76 185 2.0 5.0 0.00 0.00 0.00 55 1013.1
20260509171408 76 222 3.0 5.0 0.00 0.00 0.00 55 1013.1
20260509170907 75 232 2.0 5.0 0.00 0.00 0.00 56 1013.1
20260509170412 74 216 2.0 6.0 0.00 0.00 0.00 57 1013.1
20260509170407 75 238 2.0 6.0 0.00 0.00 0.00 57 1013.0
20260509165903 74 237 2.0 6.0 0.00 0.00 0.00 57 1013.1
20260509164851 74 238 1.0 2.0 0.00 0.00 0.00 58 1013.1
20260509164726 72 246 1.0 4.0 0.00 0.00 0.00 61 1013.1
20260509163708 74 162 2.0 5.0 0.00 0.00 0.00 59 1013.1
20260509163207 73 196 1.0 4.0 0.00 0.00 0.00 60 1013.1
20260509162206 72 202 1.0 4.0 0.00 0.00 0.00 61 1013.1
20260509161702 71 207 1.0 4.0 0.00 0.00 0.00 61 1013.1
20260509161133 71 187 2.0 4.0 0.00 0.00 0.00 61 1013.2
20260509160638 71 236 2.0 3.0 0.00 0.00 0.00 63 1013.1
20260509160633 72 211 2.0 4.0 0.00 0.00 0.00 62 1013.1
20260509155626 71 182 1.0 3.0 0.00 0.00 0.00 63 1013.1
20260509154751 69 207 1.0 4.0 0.00 0.00 0.00 67 1012.9
20260509153744 69 181 1.0 4.0 0.00 0.00 0.00 67 1012.9
20260509153245 68 185 1.0 4.0 0.00 0.00 0.00 68 1012.9
20260509152738 68 201 1.0 2.0 0.00 0.00 0.00 69 1013.0
20260509151613 68 192 0.0 0.0 0.00 0.00 0.00 72 1012.9
20260509151609 68 186 0.0 0.0 0.00 0.00 0.00 71 1012.9
20260509150606 67 159 0.0 1.0 0.00 0.00 0.00 73 1013.0
20260509150106 67 171 1.0 3.0 0.00 0.00 0.00 73 1012.9
20260509145606 66 188 1.0 5.0 0.00 0.00 0.00 73 1012.9
20260509145107 65 182 0.0 5.0 0.00 0.00 0.00 74 1012.8
20260509144557 65 186 1.0 4.0 0.00 0.00 0.00 75 1012.6
20260509144041 64 197 1.0 4.0 0.00 0.00 0.00 75 1012.7
20260509143541 64 200 0.0 0.0 0.00 0.00 0.00 75 1012.7
20260509143533 63 190 0.0 0.0 0.00 0.00 0.00 75 1012.7
20260509142535 62 215 0.0 0.0 0.00 0.00 0.00 77 1012.6
20260509142531 63 220 0.0 0.0 0.00 0.00 0.00 76 1012.7
20260509141533 62 205 0.0 0.0 0.00 0.00 0.00 79 1012.5
20260509141036 61 191 0.0 0.0 0.00 0.00 0.00 80 1012.5
20260509141030 60 201 0.0 0.0 0.00 0.00 0.00 81 1012.1
20260509140522 60 195 0.0 0.0 0.00 0.00 0.00 81 1012.2
20260509135459 59 184 0.0 0.0 0.00 0.00 0.00 82 1012.2
20260509134950 59 182 0.0 0.0 0.00 0.00 0.00 82 1012.2
20260509134448 58 186 0.0 0.0 0.00 0.00 0.00 83 1012.2
20260509133947 58 215 0.0 2.0 0.00 0.00 0.00 83 1012.2
20260509133448 58 184 1.0 2.0 0.00 0.00 0.00 83 1012.1
20260509132945 58 165 1.0 2.0 0.00 0.00 0.00 83 1012.1
20260509132447 58 202 1.0 3.0 0.00 0.00 0.00 82 1012.2
20260509131945 58 202 1.0 3.0 0.00 0.00 0.00 82 1012.0
20260509131451 58 184 1.0 1.0 0.00 0.00 0.00 82 1012.0
20260509130311 58 180 1.0 3.0 0.00 0.00 0.00 82 1012.0
20260509125810 58 197 1.0 3.0 0.00 0.00 0.00 82 1011.9
20260509125312 58 197 1.0 2.0 0.00 0.00 0.00 82 1011.9
20260509124809 58 188 1.0 2.0 0.00 0.00 0.00 82 1012.0
20260509124310 58 178 1.0 3.0 0.00 0.00 0.00 82 1011.9
20260509123747 58 166 1.0 3.0 0.00 0.00 0.00 82 1011.9
20260509123249 58 178 1.0 0.0 0.00 0.00 0.00 82 1011.9
20260509122117 58 184 2.0 5.0 0.00 0.00 0.00 82 1011.7
20260509121623 58 217 1.0 5.0 0.00 0.00 0.00 82 1011.9
20260509121618 58 206 1.0 4.0 0.00 0.00 0.00 82 1011.8
20260509120618 58 206 2.0 5.0 0.00 0.00 0.00 82 1011.9
20260509120121 58 207 2.0 4.0 0.00 0.00 0.00 82 1011.9
20260509115614 58 199 2.0 4.0 0.00 0.00 0.00 82 1011.9
20260509115115 59 207 2.0 0.0 0.00 0.00 0.00 82 1011.8
20260509113608 59 199 2.0 3.0 0.00 0.00 0.00 81 1011.8
20260509112429 59 199 2.0 5.0 0.00 0.00 0.00 81 1011.7
20260509111928 59 194 2.0 5.0 0.00 0.00 0.00 82 1011.7
20260509111431 59 205 3.0 5.0 0.00 0.00 0.00 82 1011.7
20260509111427 59 213 3.0 5.0 0.00 0.00 0.00 82 1011.7
20260509110427 59 211 3.0 5.0 0.00 0.00 0.00 82 1011.7
20260509105928 60 203 3.0 5.0 0.00 0.00 0.00 82 1011.7
20260509105427 60 205 2.0 3.0 0.00 0.00 0.00 82 1011.7
20260509104238 60 198 3.0 5.0 0.00 0.00 0.00 82 1011.7
20260509103735 60 220 3.0 5.0 0.00 0.00 0.00 82 1011.8
20260509103234 60 186 2.0 5.0 0.00 0.00 0.00 82 1011.8
20260509102737 60 190 1.0 4.0 0.00 0.00 0.00 82 1011.8
20260509102231 60 196 1.0 3.0 0.00 0.00 0.00 82 1011.9
20260509101729 60 192 0.0 2.0 0.00 0.00 0.00 82 1011.9
20260509101223 60 200 0.0 0.0 0.00 0.00 0.00 82 1011.9
20260509100554 60 205 2.0 4.0 0.00 0.00 0.00 82 1011.8
20260509095535 61 184 2.0 5.0 0.00 0.00 0.00 82 1011.9
20260509095531 60 207 2.0 5.0 0.00 0.00 0.00 82 1011.8
20260509094531 61 197 2.0 4.0 0.00 0.00 0.00 82 1011.9
20260509094029 61 191 1.0 3.0 0.00 0.00 0.00 81 1011.9
20260509093527 61 217 1.0 3.0 0.00 0.00 0.00 82 1011.9
20260509093023 61 207 1.0 2.0 0.00 0.00 0.00 82 1011.9